Regional Weather Roundup
Issued by NWS

Home | Current Version | Previous Version | Graphics & Text | Print | Product List | Glossary On
Versions: 1 2 3 4 5 6 7 8 9 10 11 12 13 14 15 16 17 18 19 20 21 22 23 24 25 26 27 28 29 30 31 32 33 34 35 36 37 38 39 40 41 42 43 44 45 46 47 48 49 50
000
ASUS43 KLMK 290302
RWRKY
KENTUCKY REGIONAL WEATHER ROUNDUP
NATIONAL WEATHER SERVICE LOUISVILLE KY
1100 PM EDT THU APR 28 2016

NOTE "FAIR" INDICATES FEW OR NO CLOUDS BELOW 12,000 FEET
WITH NO SIGNIFICANT WEATHER AND/OR OBSTRUCTIONS TO VISIBILITY.

KYZ001>023-026-027-061>063-070>075-290400-
WESTERN AND SOUTH CENTRAL KENTUCKY

CITY           SKY/WX    TMP DP  RH WIND       PRES   REMARKS
PADUCAH        CLEAR     58  53  84 CALM      29.97R
HENDERSON      CLEAR     63  54  72 CALM      29.96R
OWENSBORO      CLOUDY    66  55  67 W3        29.97R
HOPKINSVILLE   NOT AVBL
BOWLING GREEN  CLEAR     67  51  56 W5        29.97R
GLASGOW        NOT AVBL
$$

KYZ024-025-028>034-038-045-046-053-290400-
NORTH CENTRAL KENTUCKY

CITY           SKY/WX    TMP DP  RH WIND       PRES   REMARKS
LOUISVILLE/SDF PTCLDY    66  49  54 W6        29.95R
LOUISVILLE/LOU CLEAR     68  49  50 CALM      29.95R
FORT KNOX      NOT AVBL
$$

KYZ035>037-039>044-047>052-055>060-089>105-290400-
NORTHEAST KENTUCKY

CITY           SKY/WX    TMP DP  RH WIND       PRES   REMARKS
LEXINGTON      CLEAR     65  46  50 NW5       29.95R
COVINGTON      CLEAR     61  58  90 N6        29.94R
FRANKFORT      CLEAR     59  50  72 CALM      29.93S
$$

KYZ054-064>069-076>088-106>120-290400-
SOUTHEAST KENTUCKY

CITY           SKY/WX    TMP DP  RH WIND       PRES   REMARKS
JACKSON        CLEAR     68  55  63 VRB7      29.95R
LONDON         CLEAR     65  55  70 CALM      29.97R
SOMERSET       NOT AVBL
MIDDLESBORO    NOT AVBL
MONTICELLO     CLEAR     60  56  86 NE9       29.99
$$





USA.gov is the U.S. government's official web portal to all federal, state and local government web resources and services.